Location: Unspecified
(49.2170°N, 0.0000°E)
Time: 15:17:00
(UTC+00:00)

Tiros 1 despin weight - Pass Details

Date: 27 January 2021
Orbit: 593 x 642 km, 48.2° (Epoch: 07 March)

Event Time Altitude Azimuth Distance (km) Brightness Sun altitude
Rises 19:24:35 0° 279° (W) 2,854 ? -25.3°
Reaches altitude 10° 19:27:40 10° 257° (WSW) 1,938 ? -25.8°
Maximum altitude 19:30:18 16° 220° (SW) 1,595 ? -26.3°
Enters shadow 19:32:21 12° 190° (S) 1,802 ? -26.6°
Drops below altitude 10° 19:32:55 10° 184° (S) 1,921 - -26.7°
Sets 19:35:58 0° 162° (SSE) 2,815 - -27.2°
